Wind_Speed
118 118 117 117 116 115 115 116 117 118 118 118 117 116 114 113 111 110 110 109 109 108 108 108 108 108 108 107 107 106 106 105 104 103 103 102 102 102 102 101 100 99
122 122 122 122 122 122 121 120 120 121 121 122 122 122 121 120 119 117 116 115 114 114 114 113 113 113 112 111 111 110 109 109 109 108 107 106 106 106 106 105 104 103
123 124 125 126 126 127 127 126 125 125 125 125 125 125 125 125 125 125 124 122 121 120 119 119 118 117 117 117 116 115 114 113 113 112 112 111 111 110 110 109 109 108
120 121 124 126 128 129 130 130 130 130 129 129 129 129 129 129 129 129 129 129 128 127 127 126 125 123 122 121 121 120 119 119 118 118 117 116 116 115 114 114 113 113
116 117 119 122 124 127 129 131 132 133 133 133 132 132 132 133 133 133 133 133 132 132 132 132 132 131 130 129 127 126 125 124 124 123 122 121 121 120 119 118 117 117
113 114 115 117 120 123 126 128 130 132 133 134 135 135 135 135 135 135 136 136 137 137 136 136 136 136 136 136 135 134 133 131 130 129 127 126 126 125 124 123 122 121
111 112 113 115 116 118 121 124 126 129 131 132 134 136 136 137 137 137 138 138 139 140 141 140 140 140 140 140 140 140 139 138 137 136 134 133 131 130 129 128 127 126
110 111 112 113 115 116 118 120 122 124 126 128 130 133 134 136 137 138 139 139 140 141 142 143 144 144 144 143 143 143 143 143 142 141 141 140 138 137 135 133 132 131
110 111 112 113 114 115 116 117 119 120 122 124 126 128 130 132 134 135 137 138 139 140 142 143 144 146 147 147 146 146 146 146 146 146 145 144 143 143 142 140 138 137
110 111 112 113 114 115 115 117 118 119 120 121 122 124 126 127 129 131 132 134 136 137 139 141 143 144 146 148 150 150 150 149 149 149 149 148 147 147 146 146 145 143
109 110 111 112 113 114 115 116 117 118 119 120 121 122 123 125 126 127 128 129 131 133 135 137 139 141 143 145 148 150 152 153 153 153 152 151 151 150 150 150 149 148
108 109 110 111 112 113 114 115 116 117 118 119 120 121 122 123 124 125 126 127 128 129 131 132 134 136 138 140 143 146 149 151 153 155 156 155 154 154 153 153 152 152
105 106 107 108 109 111 112 113 114 116 117 118 119 120 121 123 124 125 126 127 127 128 129 130 131 132 134 136 138 140 142 145 147 150 152 155 157 157 157 156 155 154
101 102 103 104 106 107 108 110 111 113 114 116 117 119 120 121 122 124 125 126 127 127 128 129 129 130 131 133 134 135 136 138 139 141 144 147 150 153 156 158 158 158
98 99 100 101 102 103 105 106 107 109 110 112 114 115 117 118 120 121 122 124 125 126 127 128 128 129 130 131 132 132 133 133 134 134 136 137 139 142 146 150 153 156
95 96 97 98 99 100 102 103 104 105 106 108 109 111 112 114 115 117 118 119 120 122 123 124 126 127 129 130 131 131 131 131 130 130 130 130 131 133 135 138 141 144
95 95 96 97 98 99 100 100 101 103 104 105 106 107 108 109 110 112 113 114 116 116 118 119 121 123 125 127 128 129 129 128 128 127 127 127 127 127 128 130 132 134
94 95 95 96 97 97 98 99 100 101 102 103 104 105 106 107 108 108 109 111 112 112 113 114 116 118 120 122 123 124 125 125 124 124 124 125 125 126 126 126 127 129
93 94 94 94 95 96 96 97 98 99 99 100 101 102 103 104 105 106 107 108 109 110 110 111 112 115 117 118 118 119 120 121 120 119 119 120 121 122 123 124 125 126
92 92 92 93 93 94 94 95 96 96 96 97 97 97 98 99 100 102 103 105 106 107 107 108 110 113 114 115 115 116 116 116 115 114 114 115 116 117 119 120 121 122
91 91 91 91 92 92 93 93 94 94 94 94 95 95 96 96 97 98 99 100 101 102 102 103 106 109 111 112 113 113 113 112 111 111 111 111 112 114 116 117 118 119
91 90 91 91 91 91 92 92 92 92 92 93 93 94 94 95 95 96 97 97 98 98 99 99 101 105 106 106 107 109 110 110 110 110 109 109 110 111 112 113 114 115
90 90 90 91 91 91 91 91 91 92 92 92 92 92 93 94 94 95 95 95 95 96 97 97 99 101 102 101 102 104 105 106 107 108 108 108 108 109 110 110 111 111
89 89 90 90 90 90 90 90 91 91 91 91 91 91 92 93 93 93 93 94 94 95 97 97 97 98 99 99 100 101 101 101 102 103 104 105 105 107 108 109 109 109
88 89 89 89 89 89 89 90 90 90 90 90 90 90 91 91 91 91 91 93 94 95 96 95 95 96 97 97 98 99 98 98 98 98 99 100 101 102 104 105 106 107
88 88 88 88 88 88 88 89 89 89 89 90 90 90 89 89 90 90 90 92 94 95 95 94 94 95 96 96 97 97 96 96 96 96 96 96 97 97 98 100 101 102
Wind_Direction
266 265 265 264 263 261 260 259 259 259 259 259 259 258 257 257 256 256 256 256 255 255 254 254 255 255 256 256 256 256 256 255 256 256 257 258 259 259 259 259 259 258
267 266 265 264 263 263 261 260 259 258 258 258 258 258 258 257 256 256 255 255 255 255 254 254 254 254 254 255 255 255 255 255 255 255 255 255 256 257 257 258 258 257
268 267 266 265 264 263 262 261 260 259 258 257 257 257 257 257 257 257 256 255 255 254 254 254 254 254 254 254 254 254 254 254 255 255 254 254 255 255 256 256 257 257
269 267 266 265 265 264 263 262 261 260 259 258 257 256 256 256 256 256 256 256 256 255 255 254 254 254 254 254 254 254 254 254 254 254 254 254 254 254 255 255 256 256
270 268 267 266 265 264 263 262 262 261 260 259 258 257 256 255 255 255 255 255 256 255 255 255 255 254 254 254 253 253 253 253 254 254 254 254 254 254 254 254 254 255
270 269 268 266 265 264 263 263 262 261 261 260 259 258 257 256 255 255 255 255 255 255 255 255 255 254 254 254 254 253 253 253 253 253 253 253 253 253 253 253 253 254
271 270 269 268 267 266 265 264 263 262 261 261 260 260 259 258 257 256 255 255 254 254 254 254 254 254 254 254 254 253 253 253 253 253 253 253 253 253 253 253 253 253
272 271 270 269 268 267 266 265 264 264 263 262 262 261 260 260 259 258 257 256 255 255 254 253 253 253 253 253 253 253 253 253 253 253 253 253 253 252 252 253 253 253
272 271 270 270 269 268 267 267 266 265 264 264 263 263 262 261 261 260 260 259 258 257 256 255 254 253 253 253 253 253 253 253 253 253 253 253 253 253 253 253 253 253
272 271 270 270 269 269 268 267 267 266 266 265 265 264 264 263 262 262 261 260 260 259 258 257 256 255 254 253 253 252 252 252 252 252 252 252 253 253 253 253 253 253
272 271 271 270 269 269 268 267 267 266 266 266 265 265 264 264 264 263 262 262 261 260 260 259 258 257 257 255 254 254 253 252 252 252 253 253 253 253 253 253 254 254
272 272 271 270 270 269 268 268 267 267 266 266 265 265 264 264 264 264 263 263 262 262 261 260 260 259 258 258 257 256 255 254 253 253 253 253 253 253 253 253 253 254
273 272 271 271 270 270 269 269 268 267 267 266 266 265 264 264 264 264 264 264 263 263 262 262 261 261 260 259 259 258 257 257 256 255 254 254 254 254 254 254 254 253
274 273 272 271 270 270 269 268 268 268 267 267 266 266 265 265 264 264 264 264 264 264 263 263 263 262 262 261 261 260 260 259 258 258 257 256 255 255 255 254 254 254
275 274 273 272 271 271 270 269 268 268 267 267 267 266 266 266 265 265 264 264 264 264 264 264 264 264 263 263 263 262 262 261 260 260 259 259 258 257 257 256 256 255
277 276 275 274 273 272 271 270 270 269 268 268 267 267 266 266 266 266 265 265 265 265 265 264 264 264 264 264 264 263 263 263 262 262 261 260 260 259 259 258 258 258
277 276 275 274 273 272 272 271 271 270 269 269 268 268 267 267 266 266 266 266 265 265 265 265 265 264 264 264 264 264 264 264 263 263 263 262 262 261 260 260 260 259
277 276 275 274 273 272 272 271 270 270 269 269 268 268 268 268 268 268 267 267 266 266 265 265 265 264 264 264 264 264 264 263 263 263 263 263 263 262 262 261 261 260
277 276 276 275 274 273 273 272 271 270 269 269 268 268 268 268 268 268 268 268 267 267 267 266 266 265 265 265 264 264 264 264 264 263 263 263 263 263 263 262 262 261
279 278 277 277 276 275 275 274 273 272 272 271 270 270 269 268 268 267 267 267 267 267 267 267 267 266 266 266 266 265 265 265 265 265 264 264 263 263 263 263 262 262
281 280 279 278 277 276 276 275 274 274 273 273 272 272 271 270 270 269 268 267 267 267 266 266 266 265 266 266 266 267 267 267 267 266 265 264 263 263 262 262 261 261
282 281 280 279 279 278 277 276 276 275 274 274 273 273 272 271 271 270 270 269 269 269 268 267 266 265 265 266 266 266 267 267 267 267 266 265 264 264 263 262 262 261
282 282 281 280 279 279 278 277 277 276 275 274 274 273 273 272 272 271 271 271 270 270 269 268 267 267 267 266 266 265 265 265 266 266 266 266 266 266 265 265 265 264
282 281 281 280 279 279 278 278 277 276 275 275 274 274 273 273 272 272 272 272 271 270 269 269 269 268 268 268 267 266 266 265 265 265 265 265 265 265 266 266 266 266
282 281 280 280 279 279 278 278 277 277 277 276 275 274 274 273 273 273 273 272 272 271 270 270 269 269 269 268 268 267 267 267 266 266 265 265 265 265 265 265 265 265
281 281 280 279 279 279 278 278 278 277 277 276 276 275 275 275 275 274 274 273 273 272 271 271 270 270 269 269 269 268 268 268 267 267 266 266 265 265 265 265 265 264
Height
10525 10525 10524 10524 10524 10523 10523 10523 10522 10521 10520 10521 10522 10522 10523 10523 10523 10524 10524 10526 10527 10529 10530 10531 10532 10532 10533 10533 10534 10534 10535 10536 10536 10537 10539 10540 10541 10542 10543 10544 10545 10547
10505 10505 10504 10504 10504 10503 10503 10503 10503 10503 10502 10502 10502 10503 10504 10505 10505 10506 10506 10507 10509 10510 10511 10513 10514 10516 10516 10517 10517 10518 10518 10519 10520 10522 10524 10524 10524 10526 10528 10529 10531 10533
10485 10485 10484 10483 10483 10482 10482 10482 10482 10483 10483 10483 10483 10483 10484 10485 10486 10487 10488 10489 10490 10491 10492 10493 10495 10497 10498 10499 10501 10501 10502 10502 10503 10504 10507 10508 10508 10510 10512 10513 10515 10517
10464 10463 10462 10461 10461 10460 10460 10460 10460 10461 10462 10463 10463 10464 10464 10465 10465 10467 10468 10470 10471 10472 10473 10474 10475 10477 10478 10480 10482 10483 10484 10485 10486 10487 10489 10490 10491 10493 10495 10496 10499 10500
10441 10440 10439 10439 10438 10437 10437 10437 10437 10438 10439 10440 10442 10443 10444 10444 10445 10446 10447 10448 10450 10451 10453 10454 10455 10457 10459 10460 10462 10463 10465 10466 10467 10469 10471 10472 10472 10475 10477 10479 10481 10483
10419 10418 10417 10416 10416 10415 10415 10415 10415 10415 10416 10417 10418 10420 10421 10423 10424 10425 10426 10427 10428 10429 10431 10432 10434 10436 10437 10440 10441 10443 10445 10446 10447 10449 10452 10453 10453 10455 10458 10460 10464 10466
10399 10398 10396 10395 10394 10394 10394 10394 10394 10394 10394 10395 10395 10396 10397 10399 10401 10403 10405 10406 10406 10407 10408 10410 10411 10413 10415 10418 10419 10421 10423 10425 10427 10428 10431 10433 10434 10436 10437 10440 10445 10448
10380 10379 10377 10376 10375 10373 10373 10373 10373 10373 10374 10374 10374 10374 10375 10376 10378 10379 10381 10383 10385 10385 10386 10387 10388 10390 10392 10394 10397 10399 10400 10402 10404 10407 10409 10412 10414 10416 10417 10420 10424 10429
10362 10360 10358 10357 10355 10354 10353 10353 10352 10353 10353 10353 10353 10353 10353 10354 10355 10357 10358 10360 10362 10363 10364 10365 10366 10367 10369 10371 10373 10375 10377 10379 10381 10384 10387 10390 10392 10395 10397 10399 10403 10408
10344 10342 10340 10338 10337 10335 10334 10333 10333 10333 10333 10333 10333 10333 10333 10333 10333 10335 10336 10337 10338 10339 10340 10342 10343 10345 10347 10348 10349 10350 10353 10356 10358 10360 10364 10368 10371 10373 10376 10378 10382 10387
10324 10323 10321 10320 10318 10317 10315 10314 10314 10313 10312 10312 10312 10313 10312 10312 10312 10313 10313 10314 10315 10316 10317 10318 10319 10321 10323 10325 10325 10326 10328 10332 10334 10337 10340 10345 10349 10353 10355 10357 10361 10366
10306 10304 10302 10301 10300 10298 10296 10295 10294 10293 10293 10292 10292 10292 10292 10291 10291 10291 10291 10292 10293 10293 10294 10295 10296 10297 10299 10300 10301 10301 10303 10307 10311 10315 10318 10322 10326 10331 10334 10337 10340 10345
10288 10287 10285 10283 10281 10279 10278 10276 10275 10274 10273 10272 10272 10272 10272 10272 10271 10271 10270 10270 10271 10272 10272 10273 10275 10276 10276 10276 10277 10278 10279 10283 10287 10292 10296 10300 10304 10308 10311 10315 10319 10323
10272 10270 10268 10265 10263 10262 10260 10258 10257 10256 10254 10253 10252 10251 10251 10251 10251 10251 10251 10250 10250 10251 10252 10252 10254 10255 10255 10254 10254 10256 10258 10261 10265 10270 10274 10278 10282 10286 10289 10292 10295 10299
10255 10253 10250 10247 10245 10243 10241 10240 10239 10238 10236 10235 10233 10232 10232 10231 10231 10231 10232 10232 10232 10232 10232 10233 10233 10234 10234 10232 10231 10234 10236 10239 10243 10248 10252 10257 10261 10265 10268 10271 10273 10276
10237 10235 10232 10229 10227 10225 10223 10222 10221 10220 10219 10218 10216 10215 10214 10213 10213 10213 10213 10213 10214 10214 10214 10214 10214 10214 10213 10210 10210 10212 10214 10217 10221 10226 10231 10235 10240 10245 10248 10251 10252 10254
10219 10217 10214 10212 10209 10208 10206 10205 10204 10202 10200 10199 10198 10197 10196 10195 10195 10195 10195 10194 10194 10195 10196 10195 10195 10193 10190 10188 10189 10191 10193 10196 10201 10206 10210 10214 10218 10222 10227 10230 10231 10232
10202 10200 10197 10195 10193 10191 10189 10188 10186 10184 10183 10182 10181 10180 10178 10178 10178 10177 10177 10175 10174 10176 10177 10177 10176 10173 10168 10167 10169 10171 10172 10174 10180 10186 10190 10193 10197 10200 10203 10208 10210 10211
10185 10183 10181 10178 10176 10174 10172 10170 10168 10167 10166 10165 10165 10164 10163 10163 10161 10159 10158 10157 10155 10157 10158 10158 10156 10152 10148 10149 10151 10152 10152 10153 10159 10167 10173 10176 10178 10179 10181 10184 10187 10189
10168 10166 10165 10163 10161 10158 10156 10154 10152 10151 10149 10148 10149 10148 10147 10146 10145 10143 10142 10140 10138 10139 10141 10141 10138 10133 10130 10131 10132 10133 10133 10136 10142 10149 10154 10158 10160 10161 10161 10162 10164 10166
10152 10150 10149 10147 10145 10142 10140 10138 10136 10135 10134 10133 10132 10131 10130 10129 10127 10126 10125 10123 10122 10122 10124 10126 10122 10114 10112 10115 10116 10116 10117 10120 10125 10130 10134 10137 10139 10139 10138 10139 10141 10143
10136 10135 10133 10131 10129 10126 10125 10123 10121 10120 10119 10118 10117 10115 10113 10112 10111 10109 10108 10107 10107 10106 10106 10108 10104 10096 10096 10101 10102 10101 10102 10104 10107 10110 10112 10115 10117 10117 10116 10117 10119 10121
10122 10121 10118 10115 10112 10110 10109 10108 10106 10104 10103 10102 10102 10101 10098 10096 10094 10094 10093 10092 10092 10090 10087 10089 10087 10081 10081 10086 10086 10085 10087 10089 10090 10092 10094 10096 10098 10098 10097 10098 10100 10101
10109 10106 10103 10100 10097 10095 10094 10092 10090 10088 10087 10086 10087 10086 10083 10080 10079 10080 10078 10076 10075 10074 10070 10072 10072 10068 10066 10069 10069 10067 10070 10074 10076 10078 10080 10081 10082 10082 10081 10082 10083 10082
10094 10091 10088 10085 10083 10081 10079 10077 10074 10073 10072 10071 10070 10069 10069 10067 10065 10065 10065 10060 10057 10056 10055 10056 10057 10055 10052 10052 10052 10051 10054 10057 10060 10063 10065 10065 10066 10066 10065 10065 10066 10066
10079 10076 10074 10071 10069 10067 10065 10062 10061 10059 10058 10056 10054 10053 10054 10054 10052 10051 10050 10046 10040 10039 10039 10040 10040 10040 10038 10036 10036 10036 10039 10042 10044 10046 10048 10049 10050 10051 10050 10050 10050 10050